• In Romania
  • List of Countries
  • For 7 days
  • Water Temperature
  • Satellite Maps
  • Weather Map
  • Weather Widgets
  • user-avatar
    Login

    Hourly Weather Parakou

    Today, 14 December, Thursday

    Time Temperature Precipitation Wind Pressure Humidity
    00:00 +28°C° 0 mm 1 mps 727 mmHg 21%
    01:00 +27°C° 0 mm 1 mps 727 mmHg 22%
    02:00 +27°C° 0 mm 1 mps 727 mmHg 22%
    03:00 +27°C° 0 mm 1 mps 727 mmHg 22%
    04:00 +26°C° 0 mm 1 mps 727 mmHg 22%
    05:00 +26°C° 0 mm 1 mps 727 mmHg 23%
    06:00 +25°C° 0 mm 1 mps 727 mmHg 23%
    07:00 +28°C° 0 mm 1 mps 728 mmHg 20%
    08:00 +31°C° 0 mm 1 mps 728 mmHg 18%
    09:00 +34°C° 0 mm 1 mps 728 mmHg 15%
    10:00 +36°C° 0 mm 2 mps 728 mmHg 13%
    11:00 +38°C° 0 mm 2 mps 728 mmHg 12%
    12:00 +39°C° 0 mm 3 mps 727 mmHg 11%
    13:00 +40°C° 0 mm 3 mps 727 mmHg 10%
    14:00 +40°C° 0 mm 3 mps 726 mmHg 10%
    15:00 +40°C° 0 mm 3 mps 726 mmHg 10%
    16:00 +39°C° 0 mm 2 mps 726 mmHg 11%
    17:00 +37°C° 0 mm 2 mps 726 mmHg 12%
    18:00 +34°C° 0 mm 1 mps 726 mmHg 14%
    19:00 +33°C° 0 mm 1 mps 726 mmHg 15%
    20:00 +32°C° 0 mm 1 mps 727 mmHg 16%
    21:00 +31°C° 0 mm 1 mps 727 mmHg 17%
    22:00 +31°C° 0 mm 1 mps 727 mmHg 20%
    23:00 +30°C° 0 mm 1 mps 727 mmHg 23%

    Tomorrow, 15 December, Friday

    Time Temperature Precipitation Wind Pressure Humidity
    00:00 +29°C° 0 mm 1 mps 727 mmHg 26%
    01:00 +29°C° 0 mm 2 mps 727 mmHg 36%
    02:00 +28°C° 0 mm 2 mps 727 mmHg 45%
    03:00 +27°C° 0 mm 2 mps 727 mmHg 55%
    04:00 +27°C° 0 mm 1 mps 727 mmHg 61%
    05:00 +26°C° 0 mm 1 mps 727 mmHg 67%
    06:00 +26°C° 0 mm 1 mps 727 mmHg 73%
    07:00 +28°C° 0 mm 1 mps 728 mmHg 66%
    08:00 +29°C° 0 mm 2 mps 728 mmHg 59%
    09:00 +31°C° 0 mm 2 mps 729 mmHg 53%
    10:00 +35°C° 0 mm 2 mps 728 mmHg 43%
    11:00 +37°C° 0 mm 2 mps 728 mmHg 34%
    12:00 +39°C° 0 mm 1 mps 727 mmHg 24%
    13:00 +40°C° 0 mm 1 mps 727 mmHg 21%
    14:00 +41°C° 0 mm 1 mps 726 mmHg 19%
    15:00 +38°C° 0 mm 0 mps 725 mmHg 16%
    16:00 +39°C° 0 mm 1 mps 725 mmHg 18%
    17:00 +37°C° 0 mm 1 mps 725 mmHg 20%
    18:00 +35°C° 0 mm 1 mps 725 mmHg 21%
    19:00 +34°C° 0 mm 1 mps 726 mmHg 23%
    20:00 +34°C° 0 mm 1 mps 726 mmHg 24%
    21:00 +33°C° 0 mm 1 mps 727 mmHg 25%
    22:00 +32°C° 0 mm 1 mps 727 mmHg 26%
    23:00 +32°C° 0 mm 1 mps 727 mmHg 27%

    Day after tomorrow, 16 December, Saturday

    Time Temperature Precipitation Wind Pressure Humidity
    00:00 +32°C° 0 mm 1 mps 727 mmHg 27%
    01:00 +31°C° 0 mm 1 mps 726 mmHg 31%
    02:00 +30°C° 0 mm 1 mps 726 mmHg 35%
    03:00 +29°C° 0 mm 2 mps 726 mmHg 39%
    04:00 +28°C° 0 mm 2 mps 726 mmHg 49%
    05:00 +28°C° 0 mm 2 mps 726 mmHg 59%
    06:00 +27°C° 0 mm 2 mps 727 mmHg 68%
    07:00 +29°C° 0 mm 2 mps 727 mmHg 62%
    08:00 +31°C° 0 mm 1 mps 728 mmHg 56%
    09:00 +33°C° 0 mm 1 mps 729 mmHg 49%
    10:00 +35°C° 0 mm 1 mps 728 mmHg 41%
    11:00 +37°C° 0 mm 1 mps 728 mmHg 33%
    12:00 +40°C° 0 mm 1 mps 728 mmHg 25%
    13:00 +40°C° 0 mm 1 mps 727 mmHg 23%
    14:00 +39°C° 0 mm 1 mps 726 mmHg 22%
    15:00 +39°C° 0 mm 1 mps 725 mmHg 21%
    16:00 +37°C° 0 mm 1 mps 725 mmHg 22%
    17:00 +36°C° 0 mm 1 mps 725 mmHg 23%
    18:00 +35°C° 0 mm 1 mps 726 mmHg 24%
    19:00 +34°C° 0 mm 1 mps 726 mmHg 26%
    20:00 +33°C° 0 mm 1 mps 726 mmHg 27%
    21:00 +30°C° 0 mm 0 mps 727 mmHg 29%
    22:00 +29°C° 0 mm 0 mps 727 mmHg 30%
    23:00 +29°C° 0 mm 0 mps 727 mmHg 31%

    17 December, Sunday

    Time Temperature Precipitation Wind Pressure Humidity
    00:00 +28°C° 0 mm 0 mps 727 mmHg 32%
    01:00 +27°C° 0 mm 0 mps 726 mmHg 36%
    02:00 +29°C° 0 mm 1 mps 726 mmHg 40%
    03:00 +28°C° 0 mm 1 mps 725 mmHg 44%
    04:00 +27°C° 0 mm 1 mps 726 mmHg 50%
    05:00 +27°C° 0 mm 1 mps 726 mmHg 56%
    06:00 +26°C° 0 mm 1 mps 726 mmHg 63%
    07:00 +28°C° 0 mm 1 mps 727 mmHg 58%
    08:00 +30°C° 0 mm 1 mps 728 mmHg 53%
    09:00 +33°C° 0 mm 1 mps 729 mmHg 48%
    10:00 +35°C° 0 mm 1 mps 728 mmHg 38%
    11:00 +36°C° 0 mm 0 mps 728 mmHg 28%
    12:00 +39°C° 0 mm 0 mps 727 mmHg 18%
    13:00 +39°C° 0 mm 0 mps 726 mmHg 17%
    14:00 +39°C° 0 mm 0 mps 725 mmHg 15%
    15:00 +41°C° 0 mm 1 mps 724 mmHg 14%
    16:00 +40°C° 0 mm 1 mps 725 mmHg 15%
    17:00 +37°C° 0 mm 1 mps 725 mmHg 16%
    18:00 +35°C° 0 mm 1 mps 725 mmHg 16%
    19:00 +34°C° 0 mm 1 mps 726 mmHg 17%
    20:00 +33°C° 0 mm 1 mps 726 mmHg 17%
    21:00 +32°C° 0 mm 1 mps 727 mmHg 18%
    22:00 +32°C° 0 mm 1 mps 727 mmHg 20%
    23:00 +31°C° 0 mm 1 mps 727 mmHg 22%

    18 December, Monday

    Time Temperature Precipitation Wind Pressure Humidity
    00:00 +30°C° 0 mm 1 mps 727 mmHg 24%
    01:00 +29°C° 0 mm 1 mps 726 mmHg 35%
    02:00 +28°C° 0 mm 2 mps 726 mmHg 46%
    03:00 +28°C° 0 mm 2 mps 726 mmHg 57%
    04:00 +27°C° 0 mm 2 mps 726 mmHg 63%
    05:00 +27°C° 0 mm 1 mps 726 mmHg 69%
    06:00 +26°C° 0 mm 1 mps 727 mmHg 76%
    07:00 +28°C° 0 mm 1 mps 727 mmHg 70%
    08:00 +30°C° 0 mm 1 mps 728 mmHg 64%
    09:00 +31°C° 0 mm 2 mps 728 mmHg 58%
    10:00 +35°C° 0 mm 2 mps 728 mmHg 48%
    11:00 +36°C° 0 mm 1 mps 727 mmHg 38%
    12:00 +39°C° 0 mm 1 mps 727 mmHg 28%
    13:00 +40°C° 0 mm 1 mps 726 mmHg 25%
    14:00 +40°C° 0 mm 1 mps 725 mmHg 23%
    15:00 +41°C° 0 mm 1 mps 724 mmHg 20%
    16:00 +39°C° 0 mm 1 mps 725 mmHg 22%
    17:00 +37°C° 0 mm 1 mps 725 mmHg 24%
    18:00 +36°C° 0 mm 1 mps 725 mmHg 25%
    19:00 +35°C° 0 mm 1 mps 725 mmHg 28%
    20:00 +35°C° 0 mm 2 mps 726 mmHg 31%
    21:00 +34°C° 0 mm 2 mps 726 mmHg 34%
    22:00 +32°C° 0 mm 2 mps 726 mmHg 42%
    23:00 +31°C° 0 mm 3 mps 726 mmHg 49%

    19 December, Tuesday

    Time Temperature Precipitation Wind Pressure Humidity
    00:00 +30°C° 0 mm 3 mps 726 mmHg 57%
    01:00 +29°C° 0.1 mm 3 mps 726 mmHg 62%
    02:00 +29°C° 0.1 mm 3 mps 726 mmHg 66%
    03:00 +28°C° 0.1 mm 2 mps 726 mmHg 70%
    04:00 +28°C° 0 mm 2 mps 726 mmHg 72%
    05:00 +27°C° 0 mm 2 mps 726 mmHg 74%
    06:00 +27°C° 0 mm 2 mps 727 mmHg 76%
    07:00 +28°C° 0 mm 2 mps 727 mmHg 70%
    08:00 +30°C° 0 mm 2 mps 728 mmHg 63%
    09:00 +31°C° 0 mm 2 mps 728 mmHg 57%
    10:00 +35°C° 0 mm 2 mps 728 mmHg 47%
    11:00 +36°C° 0 mm 1 mps 727 mmHg 37%
    12:00 +40°C° 0 mm 1 mps 727 mmHg 27%
    13:00 +40°C° 0 mm 1 mps 726 mmHg 24%
    14:00 +41°C° 0 mm 1 mps 725 mmHg 22%
    15:00 +38°C° 0 mm 0 mps 724 mmHg 19%
    16:00 +36°C° 0 mm 0 mps 724 mmHg 20%
    17:00 +37°C° 0 mm 1 mps 725 mmHg 22%
    18:00 +35°C° 0 mm 1 mps 725 mmHg 23%
    19:00 +35°C° 0 mm 1 mps 725 mmHg 25%
    20:00 +34°C° 0 mm 1 mps 726 mmHg 26%
    21:00 +33°C° 0 mm 1 mps 726 mmHg 28%
    22:00 +32°C° 0 mm 1 mps 726 mmHg 33%
    23:00 +32°C° 0 mm 2 mps 726 mmHg 39%
    Show more